Regional Weather Roundup
Issued by NWS Wakefield, VA

Home | Current Version | Previous Version | Text Only | Print | Product List | Glossary On
Versions: 1 2 3 4 5 6 7 8 9 10 11 12 13 14 15 16 17 18 19 20 21 22 23 24 25 26 27
000
ASUS41 KAKQ 310515
RWRAKQ

REGIONAL WEATHER ROUNDUP
NATIONAL WEATHER SERVICE WAKEFIELD VA
100 AM EDT SUN JUL 31 2016

Note: "fair" indicates few or no clouds below 12,000 feet with no
significant weather and/or obstructions to visibility. * = Denotes
station may not report precipitation (e.g., rain,snow,etc.),
thunder or fog.

VAZ042-051-052>054-056-310600-
NORTHERN VIRGINIA

CITY           SKY/WX    TMP DP  RH WIND       PRES   REMARKS
WASH NATIONAL  MOCLDY    76  72  87 CALM      29.98S
DULLES         MOCLDY    72  71  97 E3        29.98F
FORT BELVOIR   CLOUDY    73  72  94 CALM      29.96F
QUANTICO       NOT AVBL
FREDERICKSBRG* FAIR      73  73 100 CALM      29.97S
STAFFORD*      CLOUDY    71  70  96 NW3       30.02S
WARRENTON      FAIR      71  67  85 CALM      29.97F
CULPEPER*      FOG       71  71 100 CALM      29.98F VSB 3/4
MANASSAS*      CLOUDY    73  72  94 CALM      29.97F
LEESBURG*      MOCLDY    72  72 100 S3        29.99S
WINCHESTER     FAIR      72  70  94 CALM      30.00R
FRONT ROYAL*   FAIR      70  70 100 CALM      29.99F
LURAY*         MOCLDY   N/A N/A N/A W3        30.01S
$$

VAZ048-049-060>072-079>083-310600-
CENTRAL AND SOUTH CENTRAL VIRGINIA

CITY           SKY/WX    TMP DP  RH WIND       PRES   REMARKS
RICHMOND       MOCLDY    73  72  96 S5        29.99R
CHESTERFIELD*  FAIR      73  61  64 CALM      30.00R
PETERSBURG*    FAIR     N/A N/A N/A CALM      29.99F
HANOVER        FAIR      73  71  93 CALM      29.99S FOG
TAPPAHANNOCK*  FAIR      75  75 100 CALM      29.99R
QUINTON*       FAIR      73  73  99 S6        29.99R
CHARLOTTSVILLE FOG       72  70  93 CALM      30.01R VSB 1/4
GORDONSVILLE*  FAIR      71  71 100 SW5       29.99F
ORANGE*          N/A     72  72 100 CALM      30.00F
LOUISA*        FOG       75  73  94 SW3       29.99S VSB 1
BUMPASS*       FAIR      71  71 100 CALM      29.99S
FARMVILLE*     FOG      N/A N/A N/A CALM      29.98F VSB 1/4
CREWE*         NOT AVBL
FORT PICKETT*  FAIR      71  71  98 CALM      29.99F
CHASE CITY*    MOCLDY    74  72  95 CALM      29.99F
CLARKSVILLE*   FAIR      73  73 100 CALM      29.99S
SOUTH HILL*    FAIR      73  73 100 CALM      30.04F
LAWRENCEVILLE* FAIR      73  73 100 CALM      29.98F
EMPORIA*         N/A     72  72 100 CALM      29.99F
$$

VAZ088>098-310600-
SOUTHEAST VIRGINIA

CITY           SKY/WX    TMP DP  RH WIND       PRES   REMARKS
NORFOLK        MOCLDY    76  74  93 N3        29.97F
VIRGINIA BEACH MOCLDY    80  73  79 NW5       29.96F
NORFOLK NAVAL  CLOUDY    76  73  91 NW3       29.98F
WEST POINT*    FAIR      73  72  96 CALM      29.99F
SALUDA*        FAIR      74  74 100 CALM      29.97F
NEWPORT NEWS   FAIR      74  73  97 CALM      29.98F
LANGLEY AFB    FAIR      75  74  97 NW1       29.97F
FORT EUSTIS    FAIR      75  73  94 W2        29.98F
WILLIAMSBURG*  FAIR      75  75 100 CALM      29.99F
HR EXEC AP*    FAIR      73  70  88 CALM      30.00F
FRANKLIN*      FAIR      73  72  96 N3        29.98S
US460-WAKEFLD  MOCLDY    74  72  93 CALM      29.98F
$$

VAZ020-022-025-037-045-310600-
WEST CENTRAL AND SOUTHWEST VIRGINIA

CITY           SKY/WX    TMP DP  RH WIND       PRES   REMARKS
STAUNTON*      FAIR      69  69  99 CALM      30.05S
WAYNESBORO*    CLOUDY    69  68  97 CALM      30.05S
HOT SPRINGS VA FAIR      68  64  88 W9        30.15S
LYNCHBURG      FAIR      72  71  97 CALM      30.03F
DANVILLE       FAIR      76  72  87 CALM      30.00F
SOUTH BOSTON*  MOCLDY   N/A N/A N/A CALM      29.99F
MARTINSVILLE   FAIR      72  71  96 CALM      30.04F
ROANOKE        FAIR      76  70  82 SE5       30.05S
BLACKSBURG     FAIR      69  69  98 CALM      30.12F
DUBLIN*        FAIR      71  69  95 CALM      30.10F
MARION*        FAIR      68  66  96 CALM      30.15F FOG
HILLSVILLE*    FAIR      72  68  89 CALM      30.12S
RICHLANDS*     FAIR      71  68  89 S3        30.12S
WISE*          FAIR      68  68 100 CALM      30.14S
ABINGDON*      FAIR      72  70  93 CALM      30.09F
$$

MDZ021>025-VAZ099-100-310600-
SOUTHERN MARYLAND AND THE DELMARVA PENINSULA

CITY           SKY/WX    TMP DP  RH WIND       PRES   REMARKS
PATUXENT RIVER NOT AVBL
BAY BRIDGE APT MOCLDY    73  73 100 CALM      29.97S
LEONARDTOWN    CLOUDY    75  72  88 CALM      29.98R
DOVER          CLOUDY    76  76 100 SE7       29.96S
GEORGETOWN     LGT RAIN  75  74  96 SE3       29.98F
EASTON         CLOUDY    76  76 100 SE3       30.00F
CAMBRIDGE      CLOUDY    73  72  94 SE5       29.96F
SALISBURY      NOT AVBL
OCEAN CITY     CLOUDY    78  74  87 CALM      29.98F
WALLOPS ISLAND MOCLDY    78  73  84 CALM      29.97F
ACCOMACK*      FAIR      75  72  88 CALM      29.98F
$$

NCZ012>017-030>032-310600-
NORTH CENTRAL AND EASTERN NORTH CAROLINA

CITY           SKY/WX    TMP DP  RH WIND       PRES   REMARKS
ROANOKE RAPIDS FAIR      73  73 100 CALM      29.98S
RALEIGH        MOCLDY    77  73  87 W5        30.01S
ELIZABETH CITY CLOUDY    77  76  96 SW7       29.96F
AHOSKIE*       PTCLDY    73  73  99 S3        29.97F
EDENTON*       CLOUDY    80  80 100 SW3       29.97F
CURRITUCK*     CLOUDY    77  77 100 W3        29.96F
KILL DEVIL HLS CLOUDY    82  82 100 SW10      29.96F HX  97
MANTEO         CLOUDY    82  82  98 SW16      29.97F HX  96
CAPE HATTERAS  PTCLDY    81  80  97 SW10      30.00F
TARBORO*       FAIR      75  73  93 CALM      29.99F
GOLDSBORO      CLOUDY    79  79 100 E1        29.97F
WASHINGTON     PTCLDY    76  75  98 CALM      29.99S
GREENVILLE     CLOUDY    77  77 100 CALM      30.00S
NEW BERN       LGT RAIN  80  77  90 S6        30.00F
WILMINGTON     CLEAR     81  75  82 W6        30.02S
$$

VAZ048-310600-
ELSEWHERE

CITY           SKY/WX    TMP DP  RH WIND       PRES   REMARKS
HARRISBURG PA  CLOUDY    72  71  97 SE8       29.97F
BALTIMORE      CLOUDY    73  71  93 CALM      29.97F
ANNAPOLIS      CLOUDY    77  74  90 CALM      29.96F
ANDREWS AFB    CLOUDY    73  72  94 SE2       29.97F
PHILADELPHIA   LGT RAIN  76  73  91 E9        29.99F
HENDERSON NC   PTCLDY    72  71  96 SW6       29.99F
GREENSBORO     CLOUDY    79  72  79 SW3       30.01S
ROCKY MOUNT    CLOUDY    75  75 100 CALM      29.99F
$$

VAZ100-310600-
MARINE

STATION/POSITION TIME  TEMP    WIND        PRES    WAVE   SWELL
                       AIR SEA DIR/SP/G            HT/PER HT/PER
                 (UTC) (F)     (DEG/KT/KT) (MB)    (FT/S) (FT/S)
BRANDYWINE LGT   0400   76     160/  6/  7   N/A
CAPE MAY NJ      0400   76 75  120/  2/  2 1015.3
LEWES DE         0400   77 74  170/  4/  5 1015.4
OCEAN-CITY-INLET 0400   78 76  120/  3/  4 1016.0
WACHAPREAGUE VA  0400   77 85  180/  5/  7 1015.4
THOMAS POINT MD  0500   77 83  130/  4/  5 1016.0F
GOOSES REEF MD   0500   79 84  140/ 10/ 12 1015.4F   1/ 3
COVE POINT MD    0400   79     210/  7/  9 1015.4S
SOLOMONS ISLAND  0400   80 85  180/  7/  8   N/A
BISHOPS HEAD MD  0400   80     130/  6/  9 1015.3F
PINEY POINT MD   0400          190/  6/  7   N/A
POTOMAC MD       0500   79 84  200/  8/ 10 1013.7F   1
CAMBRIDGE MD     0400   76 86  110/  5/  8 1014.3
LEWISETTA VA     0400   78 85  180/  6/  6 1014.6
RAPPAHANNOCK LGT 0400          150/  5/  6 1016.0R
STINGRAY PT      0500   79 85  180/  4/  6 1015.2F   0
YORK RVR RNG VA  0400   78     280/  6/  7 1015.0R
YORKTOWN VA      0400   78 84  320/  8/  9 1015.3
JAMESTOWN VA     0500   77 87   50/  2/  4   N/A
DOMINION TERM VA 0400   77     230/  3/  4 1015.3R
KIPTOPEKE VA     0400      77  130/  3/  4   N/A
CHES BAY BRIDGE  0400   77 71  140/  4/  5 1015.2
CAPE HENRY VA    0400   76     140/  2/  2   N/A
WILLOUBY STN VA  0400   78     280/  2/  4   N/A
CAPE HENRY BUOY  0412      78                N/A     2/ 6
1ST LANDING BUOY 0500   76 73  340/  4/  6 1014.9F   1
CAPE CHARLES BUO 0426      79                N/A     2/ 6
OFFSHORE WE BUOY 0421      82                N/A     2/ 6
64NM E OF VA BCH 0450   83 83  160/ 14/ 16 1014.3F   2/ 5   2/ 7
DUCK PIER NC     0400   83 71  220/ 11/ 14 1014.4
44100 DUCK FRF   0405      83                N/A     2/ 6
44056 DUCK FRF   0411      79                N/A     2/13
OREGON INLET NC  0400   83 79  200/ 18/ 20 1015.3
HATTERAS NC      0400   82 83  220/  8/ 13 1016.0
DIAMOND SHLS NC  0450   85 84  210/ 19/ 23 1015.8F   4/ 4   2/ 9
CAPE LOOKOUT NC  0500   84     220/  9/ 11 1016.1F
$$




USA.gov is the U.S. government's official web portal to all federal, state and local government web resources and services.